This demonstration page uses our WeatherBlox Daily Observations layout. Learn more.

Left ArrowRight Arrow

34.02893, -84.19858

Hourly Observations for June 22, 2020

Temp ( °F °C ) Dew Point ( °F °C ) Humidity (%) Winds ( mph kmh ) Pressure ( in mb ) Visibility ( mi km ) Precip ( " mm )
12:53 am 00:53 Clear with Mist and Fog 68 20 67 19.4 96 96 S 3 6 30.00 1016 6 10 0.00 0.00
1:38 am 01:38 Clear with Mist and Fog 67 19.4 67 19.4 100 100 Calm 30.03 1017 2 3 0.00 0.00
1:53 am 01:53 Clear with Mist and Fog 67 19.4 66 18.9 97 97 SSE 3 6 29.99 1016 1 2 0.00 0.00
2:53 am 02:53 Clear with Mist and Fog 67 19.4 66 18.9 97 97 Calm 29.98 1015 1 2 0.00 0.00
3:53 am 03:53 Clear with Mist and Fog 66 18.9 66 18.9 100 100 Calm 29.99 1016 1 2 0.00 0.00
4:53 am 04:53 Partly Cloudy with Mist and Fog 66 18.9 66 18.9 100 100 S 3 6 30.00 1016 2 3 0.00 0.00
5:16 am 05:16 Partly Cloudy with Mist and Fog 67 19.4 66 18.9 97 97 Calm 30.03 1017 2 3 0.00 0.00
5:24 am 05:24 Partly Cloudy with Mist and Fog 67 19.4 66 18.9 97 97 Calm 30.03 1017 2 2 0.00 0.00
5:51 am 05:51 Clear with Mist and Fog 66 19 66 19 100 100 Calm 30.04 1017 3 5 0.00 0.00
5:53 am 05:53 Mostly Clear with Mist and Fog 67 19.4 66 18.9 97 97 Calm 30.01 1016 5 8 0.00 0.00
6:53 am 06:53 Sunny with Mist and Fog 66 18.9 66 18.9 100 100 Calm 30.02 1017 4 6 0.00 0.00
7:53 am 07:53 Sunny 69 20.6 68 20 96 96 Calm 30.03 1017 7 11 0.00 0.00
8:53 am 08:53 Sunny 73 22.8 69 20.6 87 87 SSW 6 9 30.03 1017 10 16 0.00 0.00
9:53 am 09:53 Sunny 77 25 70 21.1 79 79 SSW 3 6 30.03 1017 10 16 0.00 0.00
10:53 am 10:53 Sunny 80 26.7 70 21.1 71 71 VRB 3 6 30.03 1017 10 16 0.00 0.00
11:53 am 11:53 Sunny 83 28.3 70 21.1 65 65 SSW 6 9 30.03 1017 10 16 0.00 0.00
12:53 pm 12:53 Mostly Cloudy 84 28.9 68 20 59 59 WSW 9 15 30.01 1016 10 16 0.00 0.00
1:04 pm 13:04 Mostly Cloudy 86 30 69 20.6 57 57 undefined N/A 29.99 1016 10 16 0.00 0.00
1:53 pm 13:53 Partly Cloudy with Nearby Thunderstorms 83 28.3 68 20 61 61 W 14 22 29.99 1016 9 14 0.00 0.00
2:16 pm 14:16 Mostly Cloudy 82 27.8 72 22.2 72 72 WNW 9 15 29.99 1015 10 16 0.00 0.00
2:31 pm 14:31 Partly Cloudy with Nearby Thunderstorms 84 28.9 71 21.7 65 65 W 7 11 29.97 1015 10 16 0.00 0.00
2:46 pm 14:46 Sunny 86 30 71 21.7 61 61 W 8 13 29.96 1015 10 16 0.00 0.00
2:53 pm 14:53 Sunny with Nearby Thunderstorms 86 30 70 21.1 59 59 VRB 7 11 29.96 1015 10 16 0.00 0.00
3:10 pm 15:10 Sunny 85 29.4 70 21.1 61 61 W 10 17 29.95 1014 10 16 0.00 0.00
3:49 pm 15:49 Mostly Cloudy with Thunderstorms 84 29 70 21 62 62 SSW 8 13 29.95 1014 10 16 0.00 0.00
3:53 pm 15:53 Mostly Cloudy with Thunderstorms 83 28.3 68 20 61 61 VRB 6 9 29.96 1015 10 16 0.00 0.00
4:06 pm 16:06 Cloudy with Nearby Thunderstorms 80 26.7 68 20 67 67 S 9 15 29.96 1015 10 16 0.00 0.00
4:28 pm 16:28 Windy with Storms Likely 76 24.4 68 20 77 77 SSW 32 52 30.01 1016 2 2 0.12 3.05
4:30 pm 16:30 Mostly Cloudy with Strong Thunderstorms 73 22.8 67 19.4 81 81 SSW 21 33 30.00 1016 1 1 0.24 6.10
4:53 pm 16:53 Cloudy with Nearby Thunderstorms 71 21.7 69 20.6 94 94 SSE 5 7 29.97 1015 3 4 0.73 18.54
5:00 pm 17:00 Mostly Cloudy with Nearby Thunderstorms 75 23.9 71 21.7 88 88 S 6 9 29.96 1015 9 14 0.00 0.00
5:08 pm 17:08 Partly Cloudy with Nearby Thunderstorms 78 25.6 71 21.7 79 79 VRB 6 9 29.94 1014 10 16 0.00 0.00
5:17 pm 17:17 Mostly Sunny 78 25.6 71 21.7 79 79 W 5 7 29.94 1014 10 16 0.00 0.00
5:53 pm 17:53 Mostly Sunny 80 26.7 72 22.2 76 76 S 6 9 29.95 1014 10 16 0.00 0.00
6:32 pm 18:32 Partly Cloudy with Nearby Thunderstorms 79 26.1 73 22.8 82 82 Calm 29.95 1014 10 16 0.00 0.00
6:44 pm 18:44 Mostly Cloudy with Strong Thunderstorms 72 22.2 70 21.1 94 94 SW 25 41 29.99 1015 2 3 0.05 1.27
6:53 pm 18:53 Mostly Cloudy with Thunderstorms 70 21.1 69 20.6 97 97 SW 14 22 29.99 1016 2 3 0.08 2.03
7:01 pm 19:01 Cloudy with Thunderstorms 70 21.1 68 20 93 93 W 14 22 29.99 1016 3 5 0.03 0.76
7:18 pm 19:18 Mostly Cloudy with Nearby Thunderstorms 70 21.1 68 20 93 93 SE 6 9 30.01 1016 6 10 0.04 1.02
7:36 pm 19:36 Mostly Cloudy with Light Rain 69 20.6 68 20 96 96 VRB 3 6 30.01 1016 5 8 0.06 1.52
7:53 pm 19:53 Partly Cloudy with Light Rain 69 20.6 68 20 96 96 Calm 30.01 1016 6 10 0.07 1.78
8:53 pm 20:53 Mostly Clear 70 21.1 69 20.6 97 97 Calm 29.98 1015 8 13 0.01 0.25
9:53 pm 21:53 Clear 69 20.6 69 20.6 100 100 Calm 29.98 1015 7 11 0.00 0.00
10:53 pm 22:53 Clear 70 21.1 69 20.6 97 97 Calm 29.98 1015 8 13 0.00 0.00
11:53 pm 23:53 Partly Cloudy 70 21.1 69 20.6 97 97 Calm 29.97 1015 10 16 0.00 0.00

Powered by AerisWeather